Weather History for Adrian, MI

Change the Weather History Date:

Monday, December 10, 2012

  Actual Average Record
Temperature  
Mean Temperature 37 °F -  
Max Temperature 42 °F 36 °F 66 °F (1971)
Min Temperature 30 °F 21 °F -4 °F (1958)
Degree Days  
Heating Degree Days 28    
Moisture  
Dew Point 33 °F    
Average Humidity 82    
Maximum Humidity 100    
Minimum Humidity 70    
Precipitation  
Precipitation 0.00 in - - ()
Sea Level Pressure  
Sea Level Pressure 29.71 in    
Wind  
Wind Speed 8 mph (NW)    
Max Wind Speed 15 mph    
Max Gust Speed 22 mph    
Visibility 9 miles    
Events      
Averages and records for this station are not official NWS values.
T = Trace of Precipitation, MM = Missing Value Source: NWS Daily Summary

Daily Weather History Graph

Daily Weather History Graph

Search for Another Location

Airport:

Trip Planner

Search our weather history database for the weather conditions in past years. The results will help you decide how hot, cold, wet, or windy it might be!

Date:

Astronomy

Dec. 10, 2012 Rise Set
Actual Time 7:53 AM EST 5:05 PM EST
Civil Twilight 7:21 AM EST 5:36 PM EST
Nautical Twilight 6:46 AM EST 6:11 PM EST
Astronomical Twilight 6:13 AM EST 6:45 PM EST
Moon 4:33 AM EST (12/10) 2:55 PM EST (12/10)
Length of Visible Light 10h 14m
Length of Day
9h 11m
Waning Crescent, 10% of the Moon is Illuminated
Dec 10
Waning Crescent
Dec 13
New
Dec 20
First Quarter
Dec 28
Full
Jan 4
Last Quarter

Hourly Weather History & Observations

Time (EST) Temp. Windchill Dew Point Humidity Pressure Visibility Wind Dir Wind Speed Gust Speed Precip Events Conditions
12:37 AM 39.2 °F 35.9 °F 39.2 °F 100% 29.65 in 1.0 mi WNW 4.6 mph - N/A   Overcast
12:53 AM 39.9 °F 35.8 °F 39.0 °F 97% 29.68 in 1.2 mi West 5.8 mph - N/A   Overcast
12:59 AM 39.2 °F 35.9 °F 39.2 °F 100% 29.65 in 2.0 mi West 4.6 mph - N/A   Overcast
1:14 AM 39.2 °F 34.2 °F 39.2 °F 100% 29.65 in 3.0 mi West 6.9 mph - N/A   Overcast
1:53 AM 39.9 °F 35.8 °F 39.9 °F 100% 29.66 in 3.0 mi West 5.8 mph - N/A   Overcast
2:35 AM 41.0 °F 37.1 °F 39.2 °F 93% 29.64 in 5.0 mi West 5.8 mph - N/A   Overcast
2:53 AM 41.0 °F 35.8 °F 39.9 °F 96% 29.67 in 8.0 mi WNW 8.1 mph - N/A   Overcast
3:53 AM 42.1 °F 36.1 °F 39.0 °F 89% 29.66 in 10.0 mi West 10.4 mph - N/A   Overcast
4:53 AM 41.0 °F 35.8 °F 37.9 °F 89% 29.65 in 9.0 mi West 8.1 mph - N/A   Overcast
5:53 AM 41.0 °F 34.7 °F 37.9 °F 89% 29.66 in 8.0 mi West 10.4 mph - N/A   Overcast
6:07 AM 39.2 °F 32.0 °F 37.4 °F 93% 29.64 in 10.0 mi West 11.5 mph 19.6 mph N/A   Overcast
6:16 AM 39.2 °F 30.8 °F 37.4 °F 93% 29.64 in 10.0 mi West 15.0 mph 19.6 mph N/A   Overcast
6:33 AM 39.2 °F 32.0 °F 37.4 °F 93% 29.64 in 8.0 mi West 11.5 mph - N/A   Overcast
7:14 AM 39.2 °F 32.5 °F 33.8 °F 81% 29.65 in 10.0 mi WNW 10.4 mph 19.6 mph N/A   Overcast
7:53 AM 39.0 °F 30.6 °F 33.1 °F 79% 29.69 in 10.0 mi WNW 15.0 mph 19.6 mph N/A   Overcast
8:53 AM 39.0 °F 32.8 °F 33.1 °F 79% 29.70 in 10.0 mi West 9.2 mph - N/A   Overcast
9:36 AM 39.2 °F 33.0 °F 33.8 °F 81% 29.68 in 10.0 mi WNW 9.2 mph - N/A   Mostly Cloudy
9:46 AM 39.2 °F 31.2 °F 33.8 °F 81% 29.68 in 10.0 mi WNW 13.8 mph 19.6 mph N/A   Mostly Cloudy
9:53 AM 39.0 °F 32.8 °F 33.1 °F 79% 29.70 in 10.0 mi WNW 9.2 mph 19.6 mph N/A   Mostly Cloudy
10:53 AM 39.0 °F 31.8 °F 33.1 °F 79% 29.71 in 10.0 mi WNW 11.5 mph - N/A   Overcast
11:53 AM 39.0 °F 30.6 °F 32.0 °F 76% 29.72 in 10.0 mi WNW 15.0 mph 19.6 mph N/A   Overcast
12:18 PM 39.2 °F 30.8 °F 32.0 °F 75% 29.68 in 10.0 mi WNW 15.0 mph - N/A   Overcast
12:53 PM 37.9 °F 31.5 °F 30.9 °F 76% 29.70 in 10.0 mi NW 9.2 mph 21.9 mph N/A   Overcast
1:53 PM 39.0 °F 31.8 °F 30.9 °F 73% 29.69 in 10.0 mi NW 11.5 mph 18.4 mph N/A   Overcast
2:53 PM 37.9 °F 32.7 °F 30.9 °F 76% 29.70 in 10.0 mi WNW 6.9 mph - N/A   Overcast
3:02 PM 37.4 °F 31.4 °F 30.2 °F 75% 29.68 in 10.0 mi NW 8.1 mph - N/A   Overcast
3:30 PM 37.4 °F 30.8 °F 30.2 °F 75% 29.70 in 10.0 mi NW 9.2 mph - N/A   Overcast
3:53 PM 37.9 °F 30.9 °F 30.0 °F 73% 29.73 in 10.0 mi NW 10.4 mph - N/A   Overcast
4:15 PM 37.4 °F 30.8 °F 28.4 °F 70% 29.71 in 10.0 mi NNW 9.2 mph - N/A   Overcast
4:53 PM 36.0 °F 29.6 °F 28.0 °F 73% 29.75 in 10.0 mi North 8.1 mph - N/A   Overcast
5:53 PM 35.1 °F 27.4 °F 28.0 °F 76% 29.78 in 10.0 mi North 10.4 mph - N/A   Overcast
6:01 PM 35.6 °F 28.0 °F 26.6 °F 70% 29.76 in 10.0 mi North 10.4 mph - N/A   Overcast
6:31 PM 33.8 °F 25.8 °F 26.6 °F 75% 29.77 in 10.0 mi North 10.4 mph - N/A   Mostly Cloudy
6:53 PM 34.0 °F 27.2 °F 26.1 °F 73% 29.81 in 10.0 mi North 8.1 mph - N/A   Overcast
7:53 PM 33.1 °F 27.7 °F 25.0 °F 72% 29.82 in 10.0 mi North 5.8 mph - N/A   Overcast
8:53 PM 33.1 °F - 27.0 °F 78% 29.85 in 10.0 mi Calm Calm - N/A   Overcast
9:53 PM 33.1 °F 27.7 °F 26.1 °F 75% 29.86 in 10.0 mi NNW 5.8 mph - N/A   Mostly Cloudy
10:53 PM 32.0 °F 26.4 °F 24.1 °F 73% 29.88 in 10.0 mi NNW 5.8 mph - N/A   Overcast
11:53 PM 30.9 °F 25.2 °F 24.1 °F 76% 29.91 in 10.0 mi NW 5.8 mph - N/A   Overcast